Location: Casco Volunteer Fire Department
(44.5576°N, 87.6146°W)
Time: 00:43:09
(UTC+00:00)

BlueWalker 3 - Pass Details

Date: 21 March 2026
Orbit: 449 x 457 km, 53.2° (Epoch: 14 April)

Event Time Altitude Azimuth Distance (km) Brightness Sun altitude
Rises 01:19:52 0° 191° (S) 2,450 5.4 -14.3°
Reaches altitude 10° 01:22:35 10° 169° (S) 1,584 4.2 -14.8°
Enters shadow 01:22:54 11° 165° (SSE) 1,511 4.1 -14.9°
